Weather History for Joplin, MO

Change the Weather History Date:

Thursday, May 23, 2013

  Actual Average Record
Temperature  
Mean Temperature 62 °F 69 °F  
Max Temperature 72 °F 79 °F 92 °F (1996)
Min Temperature 52 °F 58 °F 41 °F (1963)
Degree Days  
Heating Degree Days 3 1  
Month to date heating degree days 142 58  
Since 1 July heating degree days 4246 4061  
Cooling Degree Days 0 5  
Month to date cooling degree days 53 79  
Year to date cooling degree days 83 133  
Growing Degree Days 12 (Base 50)    
Moisture  
Dew Point 54 °F    
Average Humidity 79    
Maximum Humidity 100    
Minimum Humidity 57    
Precipitation  
Precipitation 0.00 in 0.17 in 1.83 in (2011)
Month to date precipitation 4.11 4.30  
Year to date precipitation 18.61 16.54  
Sea Level Pressure  
Sea Level Pressure 30.08 in    
Wind  
Wind Speed 5 mph (NNE)    
Max Wind Speed 13 mph    
Max Gust Speed 22 mph    
Visibility 10 miles    
Events      
T = Trace of Precipitation, MM = Missing Value Source: NWS Daily Summary

Daily Weather History Graph

Daily Weather History Graph

Search for Another Location

Airport:

Trip Planner

Search our weather history database for the weather conditions in past years. The results will help you decide how hot, cold, wet, or windy it might be!

Date:

Astronomy

May. 23, 2013 Rise Set
Actual Time 6:03 AM CDT 8:26 PM CDT
Civil Twilight 5:33 AM CDT 8:56 PM CDT
Nautical Twilight 4:57 AM CDT 9:32 PM CDT
Astronomical Twilight 4:17 AM CDT 10:13 PM CDT
Moon 7:01 PM CDT (5/23) 4:46 AM CDT (5/23)
Length of Visible Light 15h 22m
Length of Day
14h 22m
Waxing Gibbous, 97% of the Moon is Illuminated
May 23
Waxing Gibbous
May 24
Full
May 31
Last Quarter
Jun 8
New
Jun 16
First Quarter

Hourly Weather History & Observations

Time (CDT) Temp. Dew Point Humidity Pressure Visibility Wind Dir Wind Speed Gust Speed Precip Events Conditions
12:53 AM 55.9 °F 55.0 °F 97% 29.95 in 10.0 mi Calm Calm - N/A   Clear
1:53 AM 55.0 °F 54.0 °F 96% 29.95 in 10.0 mi Calm Calm - N/A   Clear
2:53 AM 54.0 °F 53.1 °F 97% 29.95 in 10.0 mi Calm Calm - N/A   Clear
3:53 AM 54.0 °F 53.1 °F 97% 29.98 in 10.0 mi Calm Calm - N/A   Clear
4:53 AM 53.1 °F 52.0 °F 96% 29.99 in 10.0 mi North 3.5 mph - N/A   Clear
5:53 AM 55.9 °F 52.0 °F 87% 30.02 in 10.0 mi North 6.9 mph - N/A   Clear
6:53 AM 57.0 °F 52.0 °F 83% 30.04 in 10.0 mi North 5.8 mph - N/A   Clear
7:53 AM 60.1 °F 52.0 °F 75% 30.05 in 10.0 mi North 6.9 mph - N/A   Clear
8:53 AM 62.1 °F 52.0 °F 70% 30.12 in 10.0 mi Variable 5.8 mph - N/A   Scattered Clouds
9:53 AM 64.0 °F 53.1 °F 67% 30.12 in 10.0 mi Variable 6.9 mph - N/A   Partly Cloudy
10:53 AM 66.9 °F 54.0 °F 63% 30.11 in 10.0 mi North - - N/A   Clear
11:53 AM 69.1 °F 55.0 °F 61% 30.13 in 10.0 mi North 5.8 mph - N/A   Clear
12:53 PM 70.0 °F 55.0 °F 59% 30.13 in 10.0 mi North 5.8 mph - N/A   Clear
1:53 PM 70.0 °F 55.9 °F 61% 30.13 in 10.0 mi Variable 4.6 mph - N/A   Clear
2:53 PM 71.1 °F 55.9 °F 59% 30.12 in 10.0 mi NNE 8.1 mph - N/A   Clear
3:53 PM 71.1 °F 57.0 °F 61% 30.11 in 10.0 mi NNE 11.5 mph - N/A   Clear
4:53 PM 70.0 °F 55.9 °F 61% 30.09 in 10.0 mi NNE 11.5 mph - N/A   Clear
5:53 PM 71.1 °F 55.9 °F 59% 30.09 in 10.0 mi NE 10.4 mph - N/A   Clear
6:53 PM 70.0 °F 55.9 °F 61% 30.10 in 10.0 mi NE 9.2 mph - N/A   Clear
7:53 PM 66.9 °F 55.9 °F 68% 30.11 in 10.0 mi NNE 5.8 mph - N/A   Clear
8:53 PM 64.0 °F 55.9 °F 75% 30.11 in 10.0 mi NE 5.8 mph - N/A   Clear
9:53 PM 62.1 °F 55.0 °F 78% 30.12 in 10.0 mi NE 8.1 mph - N/A   Clear
10:53 PM 61.0 °F 54.0 °F 78% 30.17 in 10.0 mi ENE 5.8 mph - N/A   Clear
11:53 PM 59.0 °F 54.0 °F 83% 30.18 in 10.0 mi NE 4.6 mph - N/A   Clear